2804,2014-08-28 00:05:13,1409184313,59.63448,-6.68497,176,2,2002-00-00 23:05:01,,13.533,35,10.6,0,0,59.4753,-3.8771,3,5
1777,2014-07-16 05:04:25,1405487065,60.13298,-3.53141,2,2,2006-00-00 04:05:56,,13.576,30,10.7,0,0,60.1262,-3.4907,3,2
3229,2014-09-14 17:05:05,1410714305,60.22683,-2.31081,3,2,2006-00-00 16:05:37,,13.361,22,10.6,0,0,60.2365,-2.3463,3,3
2300,2014-08-07 00:03:47,1407369827,59.95855,-4.01418,3,1,2006-00-00 23:05:41,,14.479,34,10.7,0,0,59.9702,-4.0236,3,5
582,2014-05-27 09:04:21,1401181461,59.99376,-4.44818,10,3,2011-00-00 08:05:29,,9.921,36,10.9,0,0,59.9577,-4.4198,21,2
2744,2014-08-25 12:04:28,1408968268,59.51376,-3.81878,3,2,2011-00-00 11:05:50,,13.533,29,10.6,0,0,59.5116,-3.8213,3,5
39,2014-05-04 18:05:20,1399226720,59.76958,-5.63268,2,0,2014-05-04 18:05:43,1399226743,10.566,10,11.1,0,0,59.7828,-5.6926,3,5
40,2014-05-04 19:05:12,1399230312,59.73102,-4.55691,94,1,2014-05-04 19:05:12,1399230312,9.878,10,11.1,0,0,59.7778,-5.6818,3,5
41,2014-05-04 20:05:11,1399233911,59.7435,-8.64337,187,1,2014-05-04 20:05:12,1399233912,9.921,10,11.1,0,0,59.773,-5.6707,3,5
42,2014-05-04 21:05:34,1399237534,59.76958,-5.63268,2,1,2014-05-04 21:05:11,1399237511,9.964,31,11.1,0,0,59.7701,-5.6581,25,4
43,2014-05-04 22:05:13,1399241113,59.65939,-8.6922,184,0,2014-05-04 22:05:43,1399241143,9.921,31,11.1,0,0,59.7688,-5.6423,3,1
44,2014-05-04 23:05:43,1399244743,59.72063,-5.6257,5,1,2014-05-04 23:05:11,1399244711,9.835,31,11.1,0,0,59.7683,-5.6257,22,3
45,2014-05-05 00:05:21,1399248321,59.77261,-5.56183,3,2,2014-05-05 00:05:13,1399248313,9.835,31,11.1,0,0,59.7704,-5.6116,3,5
46,2014-05-05 01:05:14,1399251914,59.72365,-5.55494,5,1,2014-05-05 01:05:07,1399251907,9.835,32,11.1,0,0,59.7735,-5.5977,3,3
47,2014-05-05 02:05:13,1399255513,59.79812,-4.92344,77,1,2014-05-05 02:05:01,1399255501,9.835,32,11.1,0,0,59.7769,-5.5864,3,5
48,2014-05-05 03:05:14,1399259114,59.80046,-5.63967,3,0,2014-05-05 03:05:11,1399259111,9.835,32,11.1,0,0,59.7803,-5.5799,3,5
49,2014-05-05 04:05:12,1399262712,59.83388,-4.42605,96,1,2014-05-05 04:05:49,1399262749,9.792,32,11.1,0,0,59.7838,-5.5763,3,5
50,2014-05-05 05:05:11,1399266311,59.80349,-5.56874,5,0,2014-05-05 05:05:01,1399266301,9.792,32,11.1,0,0,59.7868,-5.5748,3,3
51,2014-05-05 06:05:39,1399269939,59.91808,-3.21949,181,1,2014-05-05 06:05:14,1399269914,9.792,32,11.1,0,0,59.7885,-5.5736,25,2
52,2014-05-05 07:05:11,1399273511,59.77559,-5.49096,1,0,2014-05-05 07:05:52,1399273552,9.792,32,11.1,0,0,59.7898,-5.5715,3,5
53,2014-05-05 08:05:17,1399277117,59.76958,-5.63268,2,0,2014-05-05 08:05:03,1399277103,9.792,32,11.1,0,0,59.7906,-5.5679,3,5
54,2014-05-05 09:05:29,1399280729,59.82154,-5.56874,8,1,2014-05-05 09:05:44,1399280744,9.792,35,11.1,0,0,59.7915,-5.5611,22,5
55,2014-05-05 10:05:21,1399284321,59.82154,-5.56874,7,0,2014-05-05 10:05:12,1399284312,9.835,35,11.1,0,0,59.7923,-5.5506,3,4
56,2014-05-05 11:05:12,1399287912,59.80349,-5.56874,4,-1,2014-05-05 11:05:40,1399287940,9.835,35,11.1,0,0,59.7945,-5.5386,3,4
57,2014-05-05 12:05:36,1399291536,59.80648,-5.49778,3,3,2014-05-05 12:05:38,1399291538,9.878,35,11.1,0,0,59.7959,-5.5246,18,4
58,2014-05-05 13:05:12,1399295112,59.82749,-5.42681,5,1,2014-05-05 13:05:11,1399295111,9.835,33,11.1,0,0,59.7974,-5.5114,3,5
59,2014-05-05 14:05:09,1399298709,59.77559,-5.49096,4,2,2014-05-05 14:05:31,1399298731,9.835,33,11.1,0,0,59.7995,-5.5013,3,5
60,2014-05-05 15:05:20,1399302320,59.97416,-8.34295,185,2,2014-05-05 15:05:03,1399302303,9.835,33,11.1,0,0,59.8023,-5.4949,3,5
61,2014-05-05 16:05:13,1399305913,59.80944,-5.42681,2,2,2014-05-05 16:05:38,1399305938,9.835,33,11.1,0,0,59.8055,-5.4924,3,5
62,2014-05-05 17:05:14,1399309514,59.94321,-7.82642,146,1,2014-05-05 17:05:03,1399309503,9.835,30,11.1,0,0,59.8087,-5.4936,3,5
63,2014-05-05 18:05:12,1399313112,59.80349,-5.56874,1,1,2014-05-05 18:05:05,1399313105,9.835,30,11.1,0,0,59.8112,-5.4905,3,5
64,2014-05-05 19:05:13,1399316713,59.92194,-7.0984,128,2,2014-05-05 19:05:10,1399316710,9.835,30,11.1,0,0,59.8125,-5.4871,3,1
65,2014-05-05 20:05:10,1399320310,59.69778,-11.24018,330,1,2014-05-05 20:05:37,1399320337,9.835,30,11.1,0,0,59.813,-5.4814,3,4
66,2014-05-05 21:05:14,1399323914,59.77559,-5.49096,5,2,2014-05-05 21:05:39,1399323939,9.792,44,11.1,0,0,59.8129,-5.4718,3,5
67,2014-05-05 22:05:12,1399327512,59.59135,-10.40629,291,2,2014-05-05 22:05:12,1399327512,9.792,44,11.1,0,0,59.8138,-5.46,3,5
68,2014-05-05 23:05:38,1399331138,59.77559,-5.49096,4,1,2014-05-05 23:05:10,1399331110,9.835,44,11.1,0,0,59.8158,-5.444,18,5
69,2014-05-06 00:05:12,1399334712,59.78408,-7.78762,151,3,2014-05-06 00:05:14,1399334714,9.792,44,11.1,0,0,59.8186,-5.4242,3,5
70,2014-05-06 01:05:22,1399338322,59.81236,-5.35583,2,1,2014-05-06 01:05:10,1399338310,9.792,35,11.1,0,0,59.8218,-5.4035,3,5
71,2014-05-06 02:05:10,1399341910,59.74072,-7.13384,117,1,2014-05-06 02:05:35,1399341935,9.792,35,11.1,0,0,59.8257,-5.3827,3,5
72,2014-05-06 03:05:20,1399345520,59.82749,-5.42681,2,1,2014-05-06 03:05:10,1399345510,9.792,35,11.1,0,0,59.8292,-5.365,3,5
73,2014-05-06 04:05:20,1399349120,59.83328,-5.28482,3,1,2014-05-06 04:05:04,1399349104,9.792,35,11.1,0,0,59.8321,-5.3498,3,5
74,2014-05-06 05:05:10,1399352710,59.83328,-5.28482,1,7,2014-05-06 05:05:07,1399352707,9.792,37,11.1,0,0,59.8345,-5.3374,3,5
75,2014-05-06 06:05:11,1399356311,59.89437,-4.07544,99,0,2014-05-06 06:05:20,1399356320,9.792,37,11.1,0,0,59.8361,-5.3267,3,5
76,2014-05-06 07:05:34,1399359934,59.83041,-5.35583,5,0,2014-05-06 07:05:08,1399359908,9.792,37,11.1,0,0,59.8362,-5.3169,18,5
77,2014-05-06 08:05:09,1399363509,59.8642,-5.2914,9,186,2014-05-06 08:05:04,1399363504,9.792,37,11.1,0,0,59.8361,-5.3078,3,5
78,2014-05-06 09:05:28,1399367128,59.86132,-5.36249,3,187,2014-05-06 09:05:13,1399367113,9.835,33,11.1,0,0,59.8361,-5.2964,18,2
79,2014-05-06 10:05:16,1399370716,59.83328,-5.28482,6,188,2014-05-06 10:05:14,1399370714,9.835,33,11.1,0,0,59.8365,-5.2818,3,5
80,2014-05-06 11:05:08,1399374308,59.83612,-5.2138,3,190,2014-05-06 11:05:09,1399374309,9.964,33,11.1,0,0,59.8382,-5.2647,3,1
81,2014-05-06 12:05:11,1399377911,59.8642,-5.2914,2,190,2014-05-06 12:05:13,1399377913,10.007,33,11.1,0,0,59.8409,-5.2436,3,5
82,2014-05-06 13:05:23,1399381523,59.83328,-5.28482,2,2,2014-05-06 13:05:44,1399381544,10.093,32,11.1,0,0,59.8444,-5.2201,3,4
83,2014-05-06 14:05:33,1399385133,59.83893,-5.14276,2,1,2014-05-06 14:05:30,1399385130,10.093,32,11.1,0,0,59.8484,-5.1967,26,4
84,2014-05-06 15:05:11,1399388711,59.83893,-5.14276,3,1,2014-05-06 15:05:11,1399388711,10.179,32,11.1,0,0,59.8525,-5.1762,3,2
85,2014-05-06 16:05:10,1399392310,59.83612,-5.2138,2,1,2014-05-06 16:05:04,1399392304,10.179,32,11.1,0,0,59.8563,-5.1579,3,5
86,2014-05-06 17:05:16,1399395916,59.86704,-5.22029,3,1,2014-05-06 17:05:09,1399395909,10.265,31,11.1,0,0,59.8592,-5.1427,3,5
87,2014-05-06 18:05:11,1399399511,59.83893,-5.14276,2,1,2014-05-06 18:05:10,1399399510,10.265,31,11.1,0,0,59.8615,-5.1315,3,5
88,2014-05-06 19:05:09,1399403109,59.94066,-6.74329,115,1,2014-05-06 19:05:11,1399403111,10.265,31,11.1,0,0,59.864,-5.1256,3,2
89,2014-05-06 20:05:36,1399406736,59.86985,-5.14917,4,1,2014-05-06 20:05:43,1399406743,10.265,31,11.1,0,0,59.864,-5.1121,26,5
90,2014-05-06 21:05:10,1399410310,59.83893,-5.14276,4,2,2014-05-06 21:05:15,1399410315,10.265,33,11.1,0,0,59.8644,-5.1023,3,3
91,2014-05-06 22:05:08,1399413908,59.83893,-5.14276,2,2,2014-05-06 22:05:12,1399413912,10.222,33,11.1,0,0,59.8648,-5.0897,3,1
92,2014-05-06 23:05:10,1399417510,59.84441,-5.00064,2,2,2014-05-06 23:05:03,1399417503,10.179,33,11.1,0,0,59.8647,-5.0753,3,5
93,2014-05-07 00:05:11,1399421111,59.84441,-5.00064,3,2,2014-05-07 00:05:44,1399421144,10.136,33,11.1,0,0,59.8647,-5.0579,3,5
94,2014-05-07 01:05:11,1399424711,59.84169,-5.07171,1,1,2014-05-07 01:05:12,1399424712,10.05,36,11.1,0,0,59.8646,-5.0398,3,5
95,2014-05-07 02:07:37,1399428457,59.69183,-9.13519,241,2,2014-05-07 02:05:22,1399428322,10.05,36,11.1,0,0,59.8639,-5.0226,145,4
96,2014-05-07 03:05:12,1399431912,59.87804,-4.9357,2,2,2014-05-07 03:05:45,1399431945,10.05,36,11.1,0,0,59.8626,-5.0089,3,5
97,2014-05-07 04:05:08,1399435508,59.80842,-6.78897,119,2,2014-05-07 04:05:11,1399435511,10.093,36,11.1,0,0,59.8618,-4.9999,3,5
98,2014-05-07 05:05:16,1399439116,59.84169,-5.07171,2,2,2014-05-07 05:05:44,1399439144,10.05,32,11.1,0,0,59.8613,-4.9969,3,5
99,2014-05-07 06:05:10,1399442710,59.79428,-5.78149,104,2,2014-05-07 06:05:58,1399442758,10.05,32,11.1,0,0,59.8615,-4.9975,3,5
100,2014-05-07 07:05:13,1399446313,59.89336,-5.00687,3,3,2014-05-07 07:05:12,1399446312,10.007,32,11.1,0,0,59.862,-5.001,3,4
101,2014-05-07 08:05:19,1399449919,59.84441,-5.00064,15,2,2014-05-07 08:05:10,1399449910,10.007,32,11.1,0,0,59.8627,-5.006,3,5
102,2014-05-07 09:05:11,1399453511,59.87804,-4.9357,2,2,2014-05-07 09:05:09,1399453509,9.964,32,11.1,0,0,59.8636,-5.0105,3,5
103,2014-05-07 10:05:11,1399457111,59.72979,0.14235,296,2,2014-05-07 10:05:02,1399457102,9.964,32,11.1,0,0,59.865,-5.0126,3,4
104,2014-05-07 11:05:09,1399460709,59.87262,-5.07803,2,2,2014-05-07 11:05:15,1399460715,10.007,32,11.1,0,0,59.8672,-5.0119,3,2
105,2014-05-07 12:05:21,1399464321,59.84441,-5.00064,2,2,2014-05-07 12:05:01,1399464301,9.964,32,11.1,0,0,59.8696,-5.0073,3,5
106,2014-05-07 13:05:26,1399467926,59.89336,-5.00687,5,3,2014-05-07 13:05:11,1399467911,9.964,31,11.1,0,0,59.8725,-5.0001,18,1
107,2014-05-07 14:05:08,1399471508,59.84441,-5.00064,3,2,2014-05-07 14:05:13,1399471513,9.964,31,11.1,0,0,59.876,-4.9908,3,4
108,2014-05-07 15:05:21,1399475121,59.87535,-5.00687,3,1,2014-05-07 15:05:21,1399475121,10.007,31,11.1,0,0,59.8802,-4.9816,3,5
109,2014-05-07 16:05:12,1399478712,59.8471,-4.92956,3,1,2014-05-07 16:05:15,1399478715,10.007,31,11.1,0,0,59.8848,-4.9737,3,5
110,2014-05-07 17:05:10,1399482310,59.84441,-5.00064,10,1,2014-05-07 17:05:32,1399482332,10.007,33,11.1,0,0,59.8903,-4.9678,3,5
111,2014-05-07 18:05:13,1399485913,59.87535,-5.00687,6,2,2014-05-07 18:05:11,1399485911,10.007,33,11.1,0,0,59.8957,-4.9637,3,5
112,2014-05-07 19:05:11,1399489511,60.11474,-8.66956,220,2,2014-05-07 19:05:02,1399489502,10.007,33,11.1,0,0,59.9011,-4.9606,3,5
113,2014-05-07 20:05:10,1399493110,59.927,-4.94186,8,2,2014-05-07 20:05:43,1399493143,10.007,33,11.1,0,0,59.9066,-4.9578,3,4
114,2014-05-07 21:05:12,1399496712,59.89605,-4.9357,2,2,2014-05-07 21:05:01,1399496701,9.964,29,11.1,0,0,59.9116,-4.9546,3,5
115,2014-05-07 22:05:13,1399500313,59.89871,-4.86451,2,2,2014-05-07 22:05:11,1399500311,9.964,29,11.1,0,0,59.9169,-4.9488,3,5
116,2014-05-07 23:06:31,1399503991,59.87804,-4.9357,4,2,2014-05-07 23:05:12,1399503912,9.964,29,11.1,0,0,59.9224,-4.9406,69,5
117,2014-05-08 00:05:22,1399507522,59.927,-4.94186,3,2,2014-05-08 00:05:15,1399507515,9.921,29,11,0,0,59.928,-4.9273,3,4
118,2014-05-08 01:05:13,1399511113,59.89871,-4.86451,7,2,2014-05-08 01:05:13,1399511113,9.921,35,11.1,0,0,59.9335,-4.9094,3,5
119,2014-05-08 02:05:13,1399514713,59.93228,-4.79929,5,2,2014-05-08 02:05:31,1399514731,9.921,35,11.1,0,0,59.9386,-4.8892,3,5
120,2014-05-08 03:05:13,1399518313,59.927,-4.94186,3,2,2014-05-08 03:05:09,1399518309,9.921,35,11.1,0,0,59.9425,-4.8682,3,5
121,2014-05-08 04:05:12,1399521912,59.93228,-4.79929,8,1,2014-05-08 04:05:12,1399521912,9.835,35,11.1,0,0,59.9464,-4.8478,3,5
122,2014-05-08 05:05:41,1399525541,59.98122,-4.80529,5,1,2014-05-08 05:05:33,1399525533,9.878,30,11.1,0,0,59.9507,-4.8279,24,1
123,2014-05-08 06:05:13,1399529113,59.93228,-5.58957,123,1,2014-05-08 06:05:27,1399529127,9.878,30,11.1,0,0,59.9542,-4.8136,3,5
124,2014-05-08 07:05:13,1399532713,59.93486,-4.72799,2,3,2014-05-08 07:05:43,1399532743,9.921,30,11.1,0,0,59.9573,-4.8037,3,5
125,2014-05-08 08:05:13,1399536313,59.88718,-2.35917,151,1,2014-05-08 08:05:13,1399536313,9.964,30,11.1,0,0,59.9601,-4.7976,3,5
126,2014-05-08 09:05:18,1399539918,59.98122,-4.80529,7,2,2014-05-08 09:05:09,1399539909,9.964,31,11.1,0,0,59.963,-4.794,3,4
127,2014-05-08 10:05:22,1399543522,60.03015,-4.81129,22,2,2014-05-08 10:05:37,1399543537,9.964,31,11.1,0,0,59.9663,-4.7913,3,5
128,2014-05-08 11:05:12,1399547112,59.98381,-4.73389,2,1,2014-05-08 11:05:06,1399547106,10.007,31,11.1,0,0,59.9696,-4.7873,3,5
129,2014-05-08 12:05:12,1399550712,59.98122,-4.80529,5,3,2014-05-08 12:05:12,1399550712,10.007,31,11.1,0,0,59.9732,-4.7795,3,5
130,2014-05-08 13:05:24,1399554324,59.95284,-4.72799,3,4,2014-05-08 13:05:42,1399554342,10.05,32,11.1,0,0,59.9771,-4.7681,3,5
131,2014-05-08 14:05:22,1399557922,60.01221,-4.81129,3,2,2014-05-08 14:05:30,1399557930,10.179,32,11.1,0,0,59.9812,-4.753,3,5
132,2014-05-08 15:05:12,1399561512,59.95284,-4.72799,9,2,2014-05-08 15:05:34,1399561534,10.265,32,11.1,0,0,59.9855,-4.7347,3,5
133,2014-05-08 16:05:11,1399565111,59.98635,-4.66249,2,2,2014-05-08 16:05:09,1399565109,10.394,32,11.1,0,0,59.9896,-4.7149,3,5
134,2014-05-08 17:05:11,1399568711,59.98635,-4.66249,2,1,2014-05-08 17:05:09,1399568709,10.437,30,11.1,0,0,59.994,-4.6963,3,5
135,2014-05-08 18:05:15,1399572315,59.95284,-4.72799,2,2,2014-05-08 18:05:43,1399572343,10.308,30,11.1,0,0,59.9985,-4.6799,3,4
136,2014-05-08 19:05:22,1399575922,59.98381,-4.73389,3,2,2014-05-08 19:05:12,1399575912,10.222,30,11.1,0,0,60.0027,-4.6668,3,2
137,2014-05-08 20:05:09,1399579509,59.98886,-4.59106,1,2,2014-05-08 20:05:12,1399579512,10.222,30,11.1,0,0,60.0066,-4.6565,3,5
138,2014-05-08 21:05:12,1399583112,60.41512,1.23588,336,1,2014-05-08 21:05:34,1399583134,10.179,33,11.1,0,0,60.0098,-4.6504,3,3
139,2014-05-08 22:05:12,1399586712,59.98635,-4.66249,7,2,2014-05-08 22:05:12,1399586712,10.179,33,11.1,0,0,60.0138,-4.6412,3,5
140,2014-05-08 23:05:26,1399590326,59.98635,-4.66249,7,2,2014-05-08 23:05:12,1399590312,10.136,33,11.1,0,0,60.0167,-4.6332,18,5
141,2014-05-09 00:05:11,1399593911,59.98635,-4.66249,3,3,2014-05-09 00:05:12,1399593912,10.093,33,11.1,0,0,60.0205,-4.6232,3,5
142,2014-05-09 01:05:30,1399597530,59.98886,-4.59106,2,2,2014-05-09 01:05:16,1399597516,10.05,31,11.1,0,0,60.023,-4.6086,22,4
143,2014-05-09 02:05:12,1399601112,59.99133,-4.51963,3,2,2014-05-09 02:05:31,1399601131,10.007,31,11.1,0,0,60.0254,-4.5903,3,5
144,2014-05-09 03:05:12,1399604712,59.98886,-4.59106,2,2,2014-05-09 03:05:12,1399604712,10.007,31,11.1,0,0,60.0281,-4.5696,3,5
145,2014-05-09 04:05:31,1399608331,59.97866,-8.27202,226,1,2014-05-09 04:05:32,1399608332,9.964,31,11.1,0,0,60.0282,-4.5474,21,5
146,2014-05-09 05:05:12,1399611912,60.02477,-4.45374,2,1,2014-05-09 05:05:12,1399611912,9.964,30,11.1,0,0,60.0284,-4.5282,3,5
147,2014-05-09 06:05:12,1399615512,59.9254,-8.33256,225,2,2014-05-09 06:05:12,1399615512,9.964,30,11.1,0,0,60.0277,-4.5121,3,5
148,2014-05-09 07:05:12,1399619112,60.02233,-4.52528,2,1,2014-05-09 07:05:10,1399619110,9.964,30,11.1,0,0,60.0262,-4.5016,3,5
149,2014-05-09 08:05:31,1399622731,60.0378,-4.59681,80,2,2014-05-09 08:05:13,1399622713,9.964,30,11.1,0,0,60.0241,-4.4967,23,5
150,2014-05-09 09:05:18,1399626318,60.04027,-4.52528,3,3,2014-05-09 09:05:44,1399626344,10.007,32,11.1,0,0,60.0223,-4.4974,3,5
151,2014-05-09 10:05:12,1399629912,59.99133,-4.51963,14,2,2014-05-09 10:05:18,1399629918,10.007,32,11.1,0,0,60.0207,-4.5012,3,5
152,2014-05-09 11:05:11,1399633511,60.02477,-4.45374,2,2,2014-05-09 11:05:13,1399633513,10.007,32,11.1,0,0,60.0197,-4.5076,3,5
153,2014-05-09 12:05:13,1399637113,60.0378,-4.59681,5,2,2014-05-09 12:05:43,1399637143,10.136,32,11.1,0,0,60.0194,-4.5138,3,5
154,2014-05-09 13:05:10,1399640710,60.02233,-4.52528,2,2,2014-05-09 13:05:09,1399640709,10.05,30,11.1,0,0,60.0202,-4.5168,3,5
155,2014-05-09 14:05:10,1399644310,60.02477,-4.45374,2,2,2014-05-09 14:05:12,1399644312,10.093,30,11.1,0,0,60.0215,-4.5153,3,5
156,2014-05-09 15:05:12,1399647912,60.02477,-4.45374,2,2,2014-05-09 15:05:06,1399647906,10.179,30,11.1,0,0,60.024,-4.5088,3,5
157,2014-05-09 16:05:13,1399651513,60.01986,-4.59681,2,3,2014-05-09 16:05:11,1399651511,10.179,30,11.1,0,0,60.0265,-4.4987,3,5
158,2014-05-09 17:05:09,1399655109,60.02233,-4.52528,2,2,2014-05-09 17:05:11,1399655111,10.179,34,11.1,0,0,60.0293,-4.4871,3,5
159,2014-05-09 18:06:03,1399658763,59.99376,-4.44818,3,2,2014-05-09 18:05:10,1399658710,10.179,34,11,0,0,60.0319,-4.476,53,5
160,2014-05-09 19:05:10,1399662310,59.99376,-4.44818,5,1,2014-05-09 19:05:11,1399662311,10.136,34,11.1,0,0,60.0347,-4.4682,3,3
161,2014-05-09 20:05:13,1399665913,60.04027,-4.52528,3,3,2014-05-09 20:05:11,1399665911,10.136,34,11.1,0,0,60.0379,-4.4638,3,4
162,2014-05-09 21:05:11,1399669511,60.02477,-4.45374,9,1,2014-05-09 21:05:42,1399669542,10.093,31,11.1,0,0,60.0415,-4.4634,3,5
163,2014-05-09 22:05:13,1399673113,60.02233,-4.52528,2,3,2014-05-09 22:05:09,1399673109,10.093,31,11.1,0,0,60.0452,-4.4654,3,3
164,2014-05-09 23:05:14,1399676714,60.0427,-4.45374,2,2,2014-05-09 23:05:02,1399676702,10.093,31,11,0,0,60.0489,-4.468,3,5
165,2014-05-10 00:05:12,1399680312,60.0427,-4.45374,2,2,2014-05-10 00:05:42,1399680342,10.093,31,11.1,0,0,60.0527,-4.469,3,5
166,2014-05-10 01:05:14,1399683914,60.04027,-4.52528,2,2,2014-05-10 01:05:00,1399683900,10.093,31,11,0,0,60.0563,-4.4665,3,5
167,2014-05-10 02:05:16,1399687516,60.04027,-4.52528,2,2,2014-05-10 02:05:11,1399687511,10.05,31,11.1,0,0,60.0599,-4.4593,3,2
168,2014-05-10 03:05:13,1399691113,60.07612,-4.38768,2,2,2014-05-10 03:05:05,1399691105,10.007,31,11.1,0,0,60.063,-4.4475,3,5
169,2014-05-10 04:05:12,1399694712,60.07612,-4.38768,2,2,2014-05-10 04:05:09,1399694709,10.007,31,11.1,0,0,60.0658,-4.4311,3,5
170,2014-05-10 05:05:12,1399698312,60.07372,-4.45932,2,2,2014-05-10 05:05:51,1399698351,10.007,29,11.1,0,0,60.0676,-4.4121,3,5
171,2014-05-10 06:05:22,1399701922,60.0451,-4.38219,8,2,2014-05-10 06:05:43,1399701943,10.007,29,11.1,0,0,60.069,-4.3945,3,5
172,2014-05-10 07:05:25,1399705525,60.07848,-4.31603,4,1,2014-05-10 07:05:13,1399705513,10.007,29,11,0,0,60.0697,-4.381,18,5
173,2014-05-10 08:05:10,1399709110,60.04746,-4.31063,3,2,2014-05-10 08:05:12,1399709112,10.007,29,11.1,0,0,60.0699,-4.3725,3,5
174,2014-05-10 09:05:13,1399712713,60.07848,-4.31603,2,2,2014-05-10 09:05:13,1399712713,10.05,29,11.1,0,0,60.0701,-4.37,3,5
175,2014-05-10 10:05:20,1399716320,60.0451,-4.38219,4,2,2014-05-10 10:05:42,1399716342,10.05,29,11,0,0,60.0705,-4.3727,3,3
176,2014-05-10 11:05:10,1399719910,60.12505,-4.39319,8,2,2014-05-10 11:05:44,1399719944,10.05,29,11,0,0,60.071,-4.3792,3,3
177,2014-05-10 12:05:27,1399723527,60.04746,-4.31063,2,2,2014-05-10 12:05:23,1399723523,10.093,29,11,0,0,60.0714,-4.3866,18,5
178,2014-05-10 13:05:58,1399727158,60.07612,-4.38768,4,4,2014-05-10 13:05:12,1399727112,10.093,30,11.1,0,0,60.0717,-4.3926,53,5
179,2014-05-10 14:05:09,1399730709,60.07372,-4.45932,5,3,2014-05-10 14:05:08,1399730708,10.136,30,11.1,0,0,60.0725,-4.3946,3,5
180,2014-05-10 15:05:09,1399734309,60.07372,-4.45932,2,2,2014-05-10 15:05:10,1399734310,10.136,30,11,0,0,60.0739,-4.3928,3,5
181,2014-05-10 16:05:32,1399737932,60.07372,-4.45932,6,1,2014-05-10 16:05:24,1399737924,10.136,30,11,0,0,60.0761,-4.3858,24,5
182,2014-05-10 17:05:09,1399741509,60.0451,-4.38219,5,2,2014-05-10 17:05:46,1399741546,10.136,34,11,0,0,60.0774,-4.3743,3,2
183,2014-05-10 18:05:55,1399745155,60.04746,-4.31063,12,2,2014-05-10 18:05:16,1399745116,10.136,34,11.1,0,0,60.0795,-4.3622,40,1
184,2014-05-10 19:05:11,1399748711,60.04746,-4.31063,4,2,2014-05-10 19:05:12,1399748712,10.093,34,11,0,0,60.0817,-4.3508,3,5
185,2014-05-10 20:05:44,1399752344,60.07612,-4.38768,2,2,2014-05-10 20:05:42,1399752342,10.05,34,11,0,0,60.084,-4.3429,27,2
186,2014-05-10 21:05:27,1399755927,60.07848,-4.31603,3,2,2014-05-10 21:05:37,1399755937,10.007,31,11,0,0,60.0869,-4.3403,20,5
187,2014-05-10 22:05:12,1399759512,60.07848,-4.31603,1,2,2014-05-10 22:05:12,1399759512,10.007,31,11,0,0,60.0898,-4.3423,3,5
188,2014-05-10 23:07:08,1399763228,60.07848,-4.31603,3,2,2014-05-10 23:05:01,1399763101,10.007,31,11,0,0,60.093,-4.3472,113,5
189,2014-05-11 00:05:10,1399766710,60.07612,-4.38768,2,1,2014-05-11 00:05:53,1399766753,10.007,31,11.1,0,0,60.096,-4.3537,3,5
190,2014-05-11 01:05:15,1399770315,60.43787,0.43625,283,3,2014-05-11 01:05:44,1399770344,10.007,37,11,0,0,60.0994,-4.3563,3,5
191,2014-05-11 02:05:11,1399773911,60.12741,-4.32144,2,1,2014-05-11 02:05:44,1399773944,10.007,37,11,0,0,60.1023,-4.355,3,5
192,2014-05-11 03:05:11,1399777511,60.12505,-4.39319,4,2,2014-05-11 03:05:37,1399777537,10.007,37,11,0,0,60.1046,-4.3479,3,5
193,2014-05-11 04:05:12,1399781112,60.07848,-4.31603,4,1,2014-05-11 04:05:13,1399781113,10.007,37,11.1,0,0,60.1064,-4.3361,3,5
194,2014-05-11 05:05:27,1399784727,60.12974,-4.24968,5,2,2014-05-11 05:05:12,1399784712,10.007,31,11,0,0,60.1077,-4.3198,18,5
195,2014-05-11 06:05:12,1399788312,60.12741,-4.32144,10,1,2014-05-11 06:05:07,1399788307,9.964,31,11,0,0,60.1084,-4.3014,3,5
196,2014-05-11 07:05:24,1399791924,60.0808,-4.24436,8,2,2014-05-11 07:05:13,1399791913,9.964,31,11,0,0,60.1085,-4.285,3,5
197,2014-05-11 08:05:13,1399795513,60.24311,-6.5157,141,2,2014-05-11 08:05:13,1399795513,9.964,31,11,0,0,60.1089,-4.2742,3,5
198,2014-05-11 09:05:13,1399799113,60.07848,-4.31603,1,2,2014-05-11 09:05:39,1399799139,9.964,32,11,0,0,60.1074,-4.2701,3,5
199,2014-05-11 10:05:13,1399802713,60.21566,-6.43582,143,2,2014-05-11 10:05:12,1399802712,9.964,32,11,0,0,60.1064,-4.2742,3,5
200,2014-05-11 11:05:28,1399806328,60.12741,-4.32144,5,2,2014-05-11 11:05:43,1399806343,10.007,32,11,0,0,60.1052,-4.2851,19,3
201,2014-05-11 12:07:24,1399810044,60.12505,-4.39319,3,4,2014-05-11 12:05:12,1399809912,10.007,32,11,0,0,60.1042,-4.3004,133,5
202,2014-05-11 13:05:12,1399813512,60.12741,-4.32144,3,1,2014-05-11 13:05:12,1399813512,10.007,33,11,0,0,60.1037,-4.3175,3,5
203,2014-05-11 14:05:30,1399817130,60.07612,-4.38768,3,2,2014-05-11 14:05:31,1399817131,10.007,33,11,0,0,60.1035,-4.3318,19,3
204,2014-05-11 15:05:11,1399820711,60.07848,-4.31603,5,2,2014-05-11 15:05:02,1399820702,10.05,33,11,0,0,60.1036,-4.3403,3,3
205,2014-05-11 16:05:11,1399824311,60.07848,-4.31603,3,3,2014-05-11 16:05:13,1399824313,10.05,33,11,0,0,60.1043,-4.3426,3,1
206,2014-05-11 17:05:17,1399827917,60.09638,-4.31603,1,1,2014-05-11 17:05:12,1399827912,10.05,31,11,0,0,60.1058,-4.3395,3,1
207,2014-05-11 18:05:10,1399831510,59.96926,0.57366,283,2,2014-05-11 18:05:13,1399831513,10.05,31,11,0,0,60.1075,-4.3319,3,5
208,2014-05-11 19:05:30,1399835130,60.12741,-4.32144,7,2,2014-05-11 19:05:36,1399835136,10.05,31,11,0,0,60.1097,-4.3227,22,5
209,2014-05-11 20:05:10,1399838710,60.12974,-4.24968,1,2,2014-05-11 20:05:31,1399838731,10.007,31,11,0,0,60.1119,-4.3156,3,5
210,2014-05-11 21:05:10,1399842310,60.18282,-2.95597,97,2,2014-05-11 21:05:02,1399842302,10.007,36,11,0,0,60.1139,-4.3128,3,5
211,2014-05-11 22:05:21,1399845921,60.07848,-4.31603,5,2,2014-05-11 22:05:08,1399845908,10.007,36,11,0,0,60.1163,-4.3155,3,5
212,2014-05-11 23:05:20,1399849520,60.22683,-2.31081,134,2,2014-05-11 23:05:12,1399849512,10.007,36,11,0,0,60.1185,-4.3227,3,3
213,2014-05-12 00:05:11,1399853111,60.07848,-4.31603,3,2,2014-05-12 00:05:38,1399853138,10.007,36,11,0,0,60.1203,-4.3332,3,5
214,2014-05-12 01:05:21,1399856721,60.07612,-4.38768,3,2,2014-05-12 01:05:09,1399856709,9.964,32,11,0,0,60.1226,-4.341,3,5
215,2014-05-12 02:05:19,1399860319,60.09638,-4.31603,2,2,2014-05-12 02:05:03,1399860303,9.964,32,11,0,0,60.1238,-4.3476,3,5
216,2014-05-12 03:05:11,1399863911,60.12505,-4.39319,4,2,2014-05-12 03:05:03,1399863903,9.964,32,11,0,0,60.1247,-4.3495,3,5
217,2014-05-12 04:05:38,1399867538,60.07372,-4.45932,12,1,2014-05-12 04:05:08,1399867508,9.964,32,11,0,0,60.1247,-4.3435,27,5
218,2014-05-12 05:05:08,1399871108,60.12741,-4.32144,2,2,2014-05-12 05:05:10,1399871110,9.964,32,11,0,0,60.1247,-4.3324,3,5
219,2014-05-12 06:05:10,1399874710,60.12974,-4.24968,2,2,2014-05-12 06:05:09,1399874709,9.964,32,11,0,0,60.1242,-4.3167,3,5
220,2014-05-12 07:05:11,1399878311,60.12741,-4.32144,2,1,2014-05-12 07:05:29,1399878329,9.964,32,11,0,0,60.1228,-4.2989,3,5
221,2014-05-12 08:05:09,1399881909,60.37449,-8.88962,265,2,2014-05-12 08:05:40,1399881940,9.964,32,11,0,0,60.1211,-4.2835,3,5
222,2014-05-12 09:05:13,1399885513,60.12741,-4.32144,4,1,2014-05-12 09:05:36,1399885536,10.007,28,11,0,0,60.1182,-4.2746,3,2
223,2014-05-12 10:06:02,1399889162,60.16567,-5.77513,121,2,2014-05-12 10:05:11,1399889111,10.007,28,11,0,0,60.1153,-4.2743,49,2